[[{"header":{"parameterUnit":"m.s-1","parameterCategory":1,"la1":30.2991,"la2":30.254,"lo1":-89.0895,"lo2":-89.0444,"dy":0.0017,"dx":0.0017,"nx":28,"ny":28,"refTime":"2024-06-27T21:00:00:Z","depth":0,"parameterNumber":2,"parameterNumberName":"U-component_of_WINDS"},"data":[0,0,0,0,0,0,0,0,0,0,0,0,0,0,0,0,0,0,0,0,0,0,0,0,0,0,0,0,0,0,0,0,0,0,0,0,0,0,0,0,0,0,0,0,0,0,0,0,0,0,0,0,0,0,0,0,0,0,1.4851,1.4852,0,1.4999,1.5,1.5002,1.5035,1.5034,1.5033,1.5032,1.5186,1.5191,1.5196,0,0,0,0,0,0,0,0,0,0,0,0,0,1.4599,1.4604,1.4851,1.4852,1.4854,1.4998,1.5,1.5002,1.5036,1.5034,1.5033,1.5032,1.5185,1.5191,1.5197,0,0,0,0,0,0,0,0,0,0,0,0,0,1.4724,1.4605,1.485,1.4888,1.4893,1.4998,1.5001,1.5003,1.5036,1.5034,1.5033,1.5031,1.5183,1.519,1.5198,1.5276,0,0,1.5221,1.5224,0,0,0,0,0,0,0,0,1.4717,1.4733,1.4881,1.4886,1.4891,1.4997,1.4968,1.5095,1.5036,1.4982,1.5032,1.5031,1.5125,1.5137,1.5168,1.5283,1.529,1.5222,1.5226,1.5229,1.5232,0,0,0,0,0,0,0,1.4708,1.4727,1.4909,1.4883,1.4889,1.4899,1.4915,1.4992,1.506,1.4986,1.4989,1.5006,1.5127,1.5161,1.5172,1.5292,1.5221,1.5228,1.5233,1.5236,1.548,1.5482,0,0,0,0,0,0,1.4693,1.472,1.4905,1.4914,1.4798,1.4904,1.4922,1.4965,1.506,1.5072,1.5007,1.5007,1.5149,1.5163,1.5178,1.5276,1.5229,1.5237,1.5241,1.5478,1.548,1.5482,0,0,0,0,0,0,1.4687,1.4709,1.4899,1.4818,1.4842,1.491,1.4958,1.4968,1.5002,1.5075,1.5088,1.5029,1.5148,1.5167,1.5251,1.5282,1.524,1.5247,1.5476,1.5479,1.5481,1.5474,0,0,0,0,0,0,1.468,1.4707,1.4736,1.4818,1.4847,1.4969,1.496,1.4972,1.5015,1.5016,1.5099,1.5111,1.5148,1.524,1.5259,1.5292,1.5253,1.5473,1.5477,1.548,1.5471,1.5476,1.548,0,0,0,0,0,1.4671,1.4729,1.4738,1.476,1.4885,1.4971,1.4987,1.5028,1.5017,1.5048,1.5095,1.5109,1.5276,1.5248,1.527,1.5306,1.5472,1.5476,1.548,1.547,1.5475,1.548,0,0,0,0,0,0,1.465,1.474,1.4751,1.4837,1.4896,1.4976,1.5016,1.5032,1.5096,1.5094,1.5143,1.5161,1.5243,1.5283,1.5251,1.5387,1.5373,1.5382,1.5358,1.5364,1.5368,1.5356,1.5259,0,0,0,0,0,1.4655,1.4716,1.4792,1.4861,1.4889,1.4948,1.4986,1.5013,1.5076,1.5101,1.5155,1.5216,1.5283,1.5325,1.539,1.5477,1.5496,1.5513,1.5517,1.552,1.5527,1.5577,1.5585,1.5497,1.5496,1.5496,0,0,1.4667,1.4724,1.4759,1.4858,1.4906,1.4969,1.4968,1.5035,1.5083,1.5112,1.5194,1.5236,1.5308,1.5394,1.5434,1.543,1.5556,1.5525,1.5527,1.5533,1.5582,1.559,1.5598,1.5499,1.5499,1.5498,0,0,1.472,1.4769,1.4832,1.4881,1.4954,1.4993,1.5007,1.5086,1.5114,1.5198,1.5221,1.5279,1.5392,1.5442,1.5483,1.5556,1.5571,1.5576,1.5598,1.5645,1.5652,1.5659,1.5685,1.5694,1.5583,1.5583,1.5583,0,1.4726,1.4821,1.4862,1.4928,1.4971,1.5,1.5064,1.511,1.5201,1.523,1.5223,1.5366,1.5417,1.5515,1.5533,1.5565,1.5584,1.5567,1.5648,1.5655,1.5661,1.5687,1.5697,1.5583,1.5583,1.5583,1.5583,0,1.4824,1.489,1.4932,1.5018,1.5066,1.5131,1.5183,1.5227,1.5249,1.5289,1.5374,1.5436,1.5514,1.5539,1.5562,1.5641,1.5636,1.5638,1.5625,1.5669,1.5694,1.5705,1.5583,1.5583,1.5583,1.5583,0,0,1.4868,1.4977,1.4992,1.5032,1.5116,1.5168,1.5234,1.531,1.5347,1.5409,1.5466,1.5562,1.5564,1.561,1.5639,1.568,1.5735,1.5677,1.568,1.5686,1.5827,1.5825,1.5836,1.5745,1.5747,1.5749,1.5821,0,1.4932,1.5051,1.5091,1.519,1.5251,1.528,1.5338,1.5396,1.5434,1.5493,1.5536,1.5603,1.5601,1.5629,1.5672,1.5719,1.5764,1.5715,1.58,1.5803,1.5781,1.5849,1.5848,1.5913,1.5831,1.5833,1.5834,0,1.5022,1.5085,1.519,1.5267,1.5294,1.5345,1.5418,1.5474,1.5541,1.5566,1.5617,1.5643,1.5714,1.5697,1.5797,1.5762,1.58,1.5828,1.5832,1.5842,1.5821,1.5861,1.5935,1.5944,1.585,1.5849,1.5848,0,1.5044,1.5156,1.5233,1.5266,1.5357,1.5393,1.5432,1.5497,1.5541,1.5605,1.5634,1.5706,1.5745,1.5801,1.5845,1.5829,1.5941,1.5928,1.5965,1.5964,1.5987,1.5985,1.6068,1.6011,1.6011,1.6011,1.601,0,1.5112,1.5175,1.5244,1.5292,1.5364,1.5409,1.5479,1.5521,1.5579,1.5635,1.5665,1.5717,1.5773,1.5833,1.5869,1.5946,1.5964,1.5987,1.5996,1.5985,1.5982,1.601,1.6007,1.6013,1.6013,1.6012,1.6012,0,1.5148,1.5197,1.5283,1.5362,1.5384,1.5433,1.5501,1.5549,1.5589,1.5661,1.568,1.5744,1.5816,1.5866,1.5959,1.5983,1.6067,1.6075,1.6044,1.6049,1.6083,1.608,1.6188,1.6204,1.6135,1.6136,1.6136,0,1.5188,1.5237,1.5322,1.5361,1.5401,1.5465,1.5509,1.5556,1.5602,1.5682,1.572,1.5794,1.5856,1.5971,1.6026,1.6098,1.6108,1.6141,1.6119,1.6106,1.6109,1.6105,1.6111,1.6144,1.6145,1.6145,1.6145,0,1.5253,1.5275,1.5338,1.5409,1.5461,1.552,1.5579,1.561,1.5668,1.5717,1.5791,1.5839,1.5935,1.6008,1.6085,1.6127,1.6146,1.6152,1.6164,1.6154,1.6134,1.6145,1.6054,1.6149,1.6149,1.6148,1.6148,1.6148,1.5293,1.5339,1.5405,1.5474,1.5523,1.5578,1.5627,1.5673,1.5736,1.5816,1.5841,1.5918,1.5985,1.609,1.6133,1.6195,1.6192,1.621,1.6215,1.6219,1.6219,1.6124,1.6209,1.6209,1.6209,1.6209,1.6209,0,1.5361,1.5405,1.5468,1.5549,1.5604,1.5617,1.5683,1.5728,1.5795,1.5855,1.5916,1.6001,1.6073,1.6134,1.6208,1.6246,1.6257,1.6264,1.6262,1.6272,1.6216,1.6198,1.6254,1.6254,1.6254,1.6254,1.6254,1.6254,1.5402,1.548,1.551,1.5612,1.5657,1.5732,1.5769,1.582,1.5868,1.5962,1.6022,1.6061,1.6122,1.6201,1.6268,1.6284,1.631,1.6315,1.6333,1.6281,1.6275,1.627,1.6254,1.6321,1.6321,1.6384,1.6384,1.6385]},{"header":{"parameterUnit":"m.s-1","parameterCategory":1,"la1":30.2991,"la2":30.254,"lo1":-89.0895,"lo2":-89.0444,"dy":0.0017,"dx":0.0017,"nx":28,"ny":28,"refTime":"2024-06-27T21:00:00:Z","depth":0,"parameterNumber":3,"parameterNumberName":"V-component_of_WINDS"},"data":[0,0,0,0,0,0,0,0,0,0,0,0,0,0,0,0,0,0,0,0,0,0,0,0,0,0,0,0,0,0,0,0,0,0,0,0,0,0,0,0,0,0,0,0,0,0,0,0,0,0,0,0,0,0,0,0,0,0,6.21,6.2101,0,6.2184,6.2185,6.2185,6.2171,6.2169,6.2168,6.2167,6.2243,6.2247,6.225,0,0,0,0,0,0,0,0,0,0,0,0,0,6.192,6.1924,6.21,6.2101,6.2102,6.2183,6.2185,6.2186,6.2171,6.2169,6.2168,6.2166,6.2242,6.2246,6.225,0,0,0,0,0,0,0,0,0,0,0,0,0,6.2,6.1925,6.21,6.2105,6.2106,6.2183,6.2185,6.2186,6.2171,6.2169,6.2167,6.2165,6.2241,6.2246,6.2251,6.2325,0,0,6.2266,6.2269,0,0,0,0,0,0,0,0,6.1996,6.2007,6.2103,6.2105,6.2106,6.2165,6.2149,6.2232,6.2172,6.2146,6.2167,6.2164,6.2218,6.2225,6.2245,6.2329,6.2332,6.2267,6.227,6.2272,6.2274,0,0,0,0,0,0,0,6.199,6.2003,6.2133,6.2105,6.2107,6.21,6.2109,6.2165,6.2193,6.2149,6.2148,6.2158,6.2219,6.224,6.2247,6.2333,6.2267,6.2271,6.2274,6.2276,6.2482,6.2485,0,0,0,0,0,0,6.1984,6.1999,6.213,6.2135,6.2045,6.2105,6.2116,6.2148,6.2193,6.2198,6.216,6.2157,6.2233,6.2241,6.225,6.234,6.2272,6.2277,6.228,6.248,6.2483,6.2486,0,0,0,0,0,0,6.1981,6.1996,6.2127,6.2067,6.2083,6.2111,6.2148,6.2151,6.2173,6.2202,6.2206,6.2178,6.2231,6.2242,6.2307,6.2343,6.2279,6.2284,6.2477,6.2481,6.2484,6.2522,0,0,0,0,0,0,6.1976,6.1995,6.2026,6.2068,6.2087,6.2186,6.215,6.2154,6.2182,6.218,6.2219,6.2223,6.2231,6.23,6.2312,6.2349,6.2288,6.2474,6.2479,6.2483,6.2518,6.2527,6.2534,0,0,0,0,0,6.1969,6.2031,6.2027,6.2043,6.2126,6.2188,6.2198,6.2208,6.2185,6.2215,6.2234,6.2222,6.2337,6.2307,6.2321,6.2359,6.2472,6.2477,6.2483,6.2514,6.2525,6.2534,0,0,0,0,0,0,6.1988,6.2036,6.2033,6.2111,6.2146,6.2185,6.2223,6.2219,6.2259,6.2254,6.2261,6.227,6.2336,6.2354,6.2319,6.2433,6.2401,6.2409,6.242,6.243,6.2438,6.2433,6.2292,0,0,0,0,0,6.2002,6.2052,6.209,6.2154,6.2173,6.2195,6.2222,6.2227,6.2262,6.2276,6.2299,6.2332,6.2375,6.2404,6.2445,6.252,6.2528,6.2553,6.2561,6.2568,6.2575,6.2616,6.2628,6.2503,6.2503,6.2503,0,0,6.203,6.2062,6.2093,6.2159,6.2187,6.2236,6.2207,6.226,6.2295,6.2283,6.2347,6.2365,6.2402,6.2472,6.2504,6.2489,6.2611,6.2575,6.258,6.2584,6.2623,6.2635,6.2645,6.2507,6.2507,6.2506,0,0,6.2106,6.2136,6.2194,6.2223,6.2267,6.2282,6.2296,6.2336,6.2349,6.2414,6.2406,6.2447,6.2521,6.2548,6.2572,6.2659,6.265,6.2672,6.2715,6.2755,6.2764,6.2773,6.2805,6.2816,6.2679,6.2679,6.2679,0,6.2135,6.2211,6.2223,6.2278,6.2307,6.2302,6.2359,6.2385,6.2439,6.2458,6.244,6.2535,6.2559,6.2636,6.2658,6.2677,6.2691,6.2668,6.2763,6.2771,6.278,6.281,6.2821,6.2682,6.2681,6.2681,6.2681,0,6.2244,6.2297,6.2338,6.2394,6.2427,6.2482,6.2501,6.2533,6.2535,6.255,6.2616,6.2645,6.2693,6.2711,6.2712,6.2788,6.2777,6.2761,6.2729,6.2794,6.2822,6.2834,6.2685,6.2684,6.2684,6.2683,0,0,6.2334,6.2398,6.2413,6.2438,6.2487,6.2526,6.258,6.263,6.2658,6.2694,6.2739,6.2803,6.2789,6.2816,6.2819,6.2854,6.2922,6.2834,6.2835,6.2849,6.3008,6.3021,6.3034,6.2917,6.2919,6.2921,6.3005,0,6.2415,6.2516,6.2529,6.2616,6.2665,6.266,6.2707,6.2741,6.2757,6.2798,6.2814,6.286,6.2838,6.2854,6.2889,6.2907,6.2954,6.2901,6.2957,6.2959,6.2949,6.3049,6.3062,6.314,6.3016,6.3018,6.302,0,6.2523,6.2568,6.2661,6.2704,6.2725,6.2767,6.2814,6.2855,6.2891,6.2901,6.2931,6.2931,6.2985,6.295,6.3024,6.2988,6.3011,6.3023,6.3026,6.3032,6.2993,6.3057,6.3166,6.3178,6.3037,6.3036,6.3034,0,6.258,6.2663,6.273,6.2752,6.2803,6.2833,6.2855,6.2891,6.292,6.296,6.2979,6.3023,6.3047,6.3081,6.3091,6.3065,6.3165,6.3131,6.3172,6.3172,6.3194,6.3192,6.3308,6.3208,6.3208,6.3208,6.3208,0,6.267,6.2727,6.2757,6.2798,6.2861,6.2875,6.2936,6.2956,6.2988,6.3031,6.3029,6.3069,6.3081,6.3122,6.313,6.319,6.3201,6.3208,6.321,6.3209,6.3208,6.3224,6.3219,6.3211,6.321,6.321,6.3209,0,6.2745,6.2767,6.2839,6.2883,6.2895,6.294,6.2976,6.3015,6.3031,6.3086,6.3099,6.3123,6.3172,6.3187,6.3244,6.3249,6.332,6.3316,6.3309,6.3309,6.335,6.3346,6.348,6.3498,6.3386,6.3387,6.3388,0,6.2801,6.2845,6.2895,6.2926,6.295,6.2999,6.303,6.3044,6.3076,6.3122,6.3155,6.3204,6.3244,6.3321,6.3342,6.3386,6.3384,6.3428,6.339,6.3388,6.3385,6.3382,6.3387,6.3435,6.3436,6.3437,6.3438,0,6.2898,6.2907,6.2954,6.3005,6.3043,6.3082,6.312,6.3144,6.3163,6.3199,6.3251,6.3282,6.3343,6.3391,6.3436,6.3455,6.3449,6.3449,6.3461,6.3461,6.3455,6.3459,6.3328,6.3446,6.3445,6.3445,6.3444,6.3444,6.2965,6.3005,6.3047,6.3099,6.313,6.3166,6.3205,6.3227,6.3272,6.3325,6.3329,6.3385,6.342,6.3481,6.3503,6.3545,6.3532,6.3549,6.3553,6.3557,6.3561,6.3449,6.3553,6.3552,6.3552,6.3552,6.3552,0,6.3063,6.309,6.3138,6.3193,6.3234,6.3228,6.327,6.3303,6.3354,6.3389,6.3429,6.3488,6.3535,6.3561,6.3607,6.3636,6.3634,6.3648,6.3646,6.365,6.357,6.3555,6.3648,6.3648,6.3648,6.3648,6.3648,6.3648,6.3118,6.3186,6.3201,6.3283,6.3309,6.3366,6.3391,6.3423,6.3452,6.3519,6.356,6.3577,6.3608,6.3657,6.3699,6.3705,6.3722,6.3737,6.3741,6.3666,6.3656,6.3646,6.3633,6.374,6.374,6.3818,6.3819,6.3819]}]]